Time,TemperatureF,DewpointF,PressureIn,WindDirection,WindDirectionDegrees,WindSpeedMPH,WindSpeedGustMPH,Humidity,HourlyPrecipIn,Conditions,Clouds,dailyrainin,SoftwareType,DateUTC
2013-01-07 00:00:00,43.6,31.5,30.19,NNE,27,0.0,2.0,62,0.00,,SCT140,0.02,VWS V14.01,2013-01-07 05:00:00,
2013-01-07 00:01:00,43.6,31.9,30.19,NNE,27,1.0,2.0,63,0.00,,SCT140,0.00,VWS V14.01,2013-01-07 05:01:00,
2013-01-07 00:02:00,43.6,31.9,30.19,NNE,28,1.0,2.0,63,0.00,,SCT140,0.00,VWS V14.01,2013-01-07 05:02:00,
2013-01-07 00:07:00,43.5,31.8,30.19,NNE,27,0.0,2.0,63,0.00,,SCT140,0.00,VWS V14.01,2013-01-07 05:07:00,
2013-01-07 00:12:00,43.4,31.7,30.18,NNE,28,0.0,2.0,63,0.00,,SCT140,0.00,VWS V14.01,2013-01-07 05:12:00,
2013-01-07 00:17:00,43.1,32.2,30.19,NNE,28,0.0,2.0,65,0.00,,SCT140,0.00,VWS V14.01,2013-01-07 05:17:00,
2013-01-07 00:23:00,42.7,31.4,30.19,NNE,27,0.0,2.0,64,0.00,,SCT140,0.00,VWS V14.01,2013-01-07 05:23:00,
2013-01-07 00:28:00,42.6,31.3,30.19,North,5,1.0,2.0,64,0.00,,SCT140,0.00,VWS V14.01,2013-01-07 05:28:00,
2013-01-07 00:33:00,42.5,31.6,30.20,North,5,0.0,2.0,65,0.00,,SCT140,0.00,VWS V14.01,2013-01-07 05:33:00,
2013-01-07 00:38:00,42.3,31.4,30.20,North,5,0.0,2.0,65,0.00,,SCT140,0.00,VWS V14.01,2013-01-07 05:38:00,
2013-01-07 00:44:00,41.8,31.3,30.20,North,5,0.0,2.0,66,0.00,,SCT140,0.00,VWS V14.01,2013-01-07 05:44:00,
2013-01-07 00:50:00,41.4,31.3,30.19,North,5,0.0,2.0,67,0.00,,SCT140,0.00,VWS V14.01,2013-01-07 05:50:00,
2013-01-07 00:56:00,41.0,30.9,30.19,North,5,0.0,2.0,67,0.00,,SCT140,0.00,VWS V14.01,2013-01-07 05:56:00,
2013-01-07 01:01:00,40.7,31.3,30.19,North,5,0.0,2.0,69,0.00,,CLR,0.00,VWS V14.01,2013-01-07 06:01:00,
2013-01-07 01:06:00,40.5,30.8,30.18,North,5,0.0,2.0,68,0.00,,CLR,0.00,VWS V14.01,2013-01-07 06:06:00,
2013-01-07 01:12:00,40.2,30.9,30.19,North,5,0.0,2.0,69,0.00,,CLR,0.00,VWS V14.01,2013-01-07 06:12:00,
2013-01-07 01:17:00,39.9,30.6,30.19,North,5,0.0,2.0,69,0.00,,CLR,0.00,VWS V14.01,2013-01-07 06:17:00,
2013-01-07 01:22:00,39.6,30.6,30.19,North,5,0.0,2.0,70,0.00,,CLR,0.00,VWS V14.01,2013-01-07 06:22:00,
2013-01-07 01:27:00,39.2,31.3,30.19,North,5,0.0,2.0,73,0.00,,CLR,0.00,VWS V14.01,2013-01-07 06:27:00,
2013-01-07 01:32:00,38.8,31.6,30.19,North,5,0.0,2.0,75,0.00,,CLR,0.00,VWS V14.01,2013-01-07 06:32:00,
2013-01-07 01:37:00,38.4,30.5,30.19,North,5,0.0,2.0,73,0.00,,CLR,0.00,VWS V14.01,2013-01-07 06:37:00,
2013-01-07 01:42:00,38.2,31.0,30.19,North,5,0.0,2.0,75,0.00,,CLR,0.00,VWS V14.01,2013-01-07 06:42:00,
2013-01-07 01:47:00,38.0,31.1,30.19,North,5,0.0,2.0,76,0.00,,CLR,0.00,VWS V14.01,2013-01-07 06:47:00,
2013-01-07 01:52:00,37.5,31.0,30.19,North,5,0.0,2.0,77,0.00,,CLR,0.00,VWS V14.01,2013-01-07 06:52:00,
2013-01-07 01:57:00,37.1,30.6,30.19,North,5,0.0,2.0,77,0.00,,CLR,0.00,VWS V14.01,2013-01-07 06:57:00,
2013-01-07 02:02:00,36.9,31.3,30.20,North,5,0.0,2.0,80,0.00,,CLR,0.00,VWS V14.01,2013-01-07 07:02:00,
2013-01-07 02:07:00,36.6,31.0,30.20,North,5,0.0,2.0,80,0.00,,CLR,0.00,VWS V14.01,2013-01-07 07:07:00,
2013-01-07 02:12:00,36.2,30.9,30.20,North,5,0.0,2.0,81,0.00,,CLR,0.00,VWS V14.01,2013-01-07 07:12:00,
2013-01-07 02:17:00,35.9,30.6,30.20,North,5,0.0,2.0,81,0.00,,CLR,0.00,VWS V14.01,2013-01-07 07:17:00,
2013-01-07 02:22:00,35.7,30.8,30.20,North,5,0.0,2.0,82,0.00,,CLR,0.00,VWS V14.01,2013-01-07 07:22:00,
2013-01-07 02:27:00,35.4,30.5,30.20,North,5,0.0,2.0,82,0.00,,CLR,0.00,VWS V14.01,2013-01-07 07:27:00,
2013-01-07 02:32:00,35.0,30.1,30.20,North,5,0.0,2.0,82,0.00,,CLR,0.00,VWS V14.01,2013-01-07 07:32:00,
2013-01-07 02:37:00,34.7,30.1,30.20,North,5,0.0,2.0,83,0.00,,CLR,0.00,VWS V14.01,2013-01-07 07:37:00,
2013-01-07 02:42:00,34.4,30.1,30.20,North,5,0.0,2.0,84,0.00,,CLR,0.00,VWS V14.01,2013-01-07 07:42:00,
2013-01-07 02:47:00,34.1,29.8,30.21,North,5,0.0,2.0,84,0.00,,CLR,0.00,VWS V14.01,2013-01-07 07:47:00,
2013-01-07 02:52:00,33.9,29.6,30.21,North,5,0.0,2.0,84,0.00,,CLR,0.00,VWS V14.01,2013-01-07 07:52:00,
2013-01-07 02:57:00,33.7,29.7,30.21,North,5,0.0,2.0,85,0.00,,CLR,0.00,VWS V14.01,2013-01-07 07:57:00,
2013-01-07 03:02:00,33.4,29.7,30.21,North,5,0.0,2.0,86,0.00,,CLR,0.00,VWS V14.01,2013-01-07 08:02:00,
2013-01-07 03:07:00,33.2,29.5,30.21,North,5,0.0,2.0,86,0.00,,CLR,0.00,VWS V14.01,2013-01-07 08:07:00,
2013-01-07 03:12:00,33.0,29.3,30.22,North,5,0.0,2.0,86,0.00,,CLR,0.00,VWS V14.01,2013-01-07 08:12:00,
2013-01-07 03:17:00,32.7,29.0,30.22,North,5,0.0,2.0,86,0.00,,CLR,0.00,VWS V14.01,2013-01-07 08:17:00,
2013-01-07 03:22:00,32.5,28.8,30.22,North,5,0.0,2.0,86,0.00,,CLR,0.00,VWS V14.01,2013-01-07 08:22:00,
2013-01-07 03:27:00,32.3,28.9,30.22,North,5,0.0,2.0,87,0.00,,CLR,0.00,VWS V14.01,2013-01-07 08:27:00,
2013-01-07 03:32:00,32.1,29.0,30.22,North,5,0.0,2.0,88,0.00,,CLR,0.00,VWS V14.01,2013-01-07 08:32:00,
2013-01-07 03:37:00,31.9,28.8,30.22,North,5,0.0,2.0,88,0.00,,CLR,0.00,VWS V14.01,2013-01-07 08:37:00,
2013-01-07 03:42:00,31.7,28.6,30.22,North,5,0.0,2.0,88,0.00,,CLR,0.00,VWS V14.01,2013-01-07 08:42:00,
2013-01-07 03:47:00,31.5,28.4,30.23,North,5,0.0,2.0,88,0.00,,CLR,0.00,VWS V14.01,2013-01-07 08:47:00,
2013-01-07 03:52:00,31.4,28.3,30.23,North,5,0.0,2.0,88,0.00,,CLR,0.00,VWS V14.01,2013-01-07 08:52:00,
2013-01-07 03:57:00,31.1,28.0,30.24,North,5,0.0,2.0,88,0.00,,CLR,0.00,VWS V14.01,2013-01-07 08:57:00,
2013-01-07 04:02:00,31.0,28.1,30.23,North,5,0.0,2.0,89,0.00,,CLR,0.00,VWS V14.01,2013-01-07 09:02:00,
2013-01-07 04:07:00,30.9,28.0,30.23,North,5,0.0,2.0,89,0.00,,CLR,0.00,VWS V14.01,2013-01-07 09:07:00,
2013-01-07 04:12:00,30.7,28.1,30.23,North,5,0.0,2.0,90,0.00,,CLR,0.00,VWS V14.01,2013-01-07 09:12:00,
2013-01-07 04:17:00,30.7,28.1,30.23,North,5,0.0,2.0,90,0.00,,CLR,0.00,VWS V14.01,2013-01-07 09:17:00,
2013-01-07 04:22:00,30.6,28.0,30.23,North,5,0.0,2.0,90,0.00,,CLR,0.00,VWS V14.01,2013-01-07 09:22:00,
2013-01-07 04:27:00,30.4,27.8,30.23,North,5,0.0,2.0,90,0.00,,CLR,0.00,VWS V14.01,2013-01-07 09:27:00,
2013-01-07 04:32:00,30.3,27.7,30.24,North,5,0.0,2.0,90,0.00,,CLR,0.00,VWS V14.01,2013-01-07 09:32:00,
2013-01-07 04:37:00,30.1,27.8,30.23,North,5,0.0,2.0,91,0.00,,CLR,0.00,VWS V14.01,2013-01-07 09:37:00,
2013-01-07 04:42:00,30.0,27.7,30.24,North,5,0.0,2.0,91,0.00,,CLR,0.00,VWS V14.01,2013-01-07 09:42:00,
2013-01-07 04:47:00,29.9,27.6,30.23,North,5,0.0,2.0,91,0.00,,CLR,0.00,VWS V14.01,2013-01-07 09:47:00,
2013-01-07 04:52:00,29.8,27.5,30.24,North,5,0.0,2.0,91,0.00,,CLR,0.00,VWS V14.01,2013-01-07 09:52:00,
2013-01-07 04:57:00,29.7,27.4,30.24,North,5,0.0,2.0,91,0.00,,CLR,0.00,VWS V14.01,2013-01-07 09:57:00,
2013-01-07 05:02:00,29.7,27.4,30.24,North,5,0.0,2.0,91,0.00,,CLR,0.00,VWS V14.01,2013-01-07 10:02:00,
2013-01-07 05:07:00,29.6,27.6,30.25,North,5,0.0,2.0,92,0.00,,CLR,0.00,VWS V14.01,2013-01-07 10:07:00,
2013-01-07 05:12:00,29.5,27.5,30.24,North,5,0.0,2.0,92,0.00,,CLR,0.00,VWS V14.01,2013-01-07 10:12:00,
2013-01-07 05:17:00,29.5,27.5,30.25,North,5,0.0,2.0,92,0.00,,CLR,0.00,VWS V14.01,2013-01-07 10:17:00,
2013-01-07 05:22:00,29.4,27.1,30.25,North,5,0.0,2.0,91,0.00,,CLR,0.00,VWS V14.01,2013-01-07 10:22:00,
2013-01-07 05:27:00,29.3,27.3,30.25,North,5,0.0,2.0,92,0.00,,CLR,0.00,VWS V14.01,2013-01-07 10:27:00,
2013-01-07 05:32:00,29.2,27.2,30.25,North,5,0.0,2.0,92,0.00,,CLR,0.00,VWS V14.01,2013-01-07 10:32:00,
2013-01-07 05:37:00,29.1,27.1,30.25,North,5,0.0,2.0,92,0.00,,CLR,0.00,VWS V14.01,2013-01-07 10:37:00,
2013-01-07 05:43:00,29.0,27.0,30.26,North,5,0.0,2.0,92,0.00,,CLR,0.00,VWS V14.01,2013-01-07 10:43:00,
2013-01-07 05:48:00,29.0,27.0,30.26,North,11,0.0,2.0,92,0.00,,CLR,0.00,VWS V14.01,2013-01-07 10:48:00,
2013-01-07 05:53:00,29.0,27.2,30.26,North,11,0.0,2.0,93,0.00,,CLR,0.00,VWS V14.01,2013-01-07 10:53:00,
2013-01-07 05:58:00,29.0,27.2,30.26,North,11,0.0,2.0,93,0.00,,CLR,0.00,VWS V14.01,2013-01-07 10:58:00,
2013-01-07 06:03:00,28.9,26.9,30.27,North,11,0.0,2.0,92,0.00,,CLR,0.00,VWS V14.01,2013-01-07 11:03:00,
2013-01-07 06:08:00,28.8,26.8,30.27,North,11,0.0,2.0,92,0.00,,CLR,0.00,VWS V14.01,2013-01-07 11:08:00,
2013-01-07 06:13:00,28.7,26.7,30.28,North,11,0.0,2.0,92,0.00,,CLR,0.00,VWS V14.01,2013-01-07 11:13:00,
2013-01-07 06:18:00,28.5,26.5,30.28,North,11,0.0,2.0,92,0.00,,CLR,0.00,VWS V14.01,2013-01-07 11:18:00,
2013-01-07 06:23:00,28.4,26.4,30.28,North,11,0.0,2.0,92,0.00,,CLR,0.00,VWS V14.01,2013-01-07 11:23:00,
2013-01-07 06:28:00,28.4,26.6,30.29,North,11,0.0,2.0,93,0.00,,CLR,0.00,VWS V14.01,2013-01-07 11:28:00,
2013-01-07 06:33:00,28.4,26.6,30.29,North,11,0.0,2.0,93,0.00,,CLR,0.00,VWS V14.01,2013-01-07 11:33:00,
2013-01-07 06:38:00,28.4,26.6,30.30,North,11,0.0,2.0,93,0.00,,CLR,0.00,VWS V14.01,2013-01-07 11:38:00,
2013-01-07 06:43:00,28.5,26.7,30.30,North,11,0.0,2.0,93,0.00,,CLR,0.00,VWS V14.01,2013-01-07 11:43:00,
2013-01-07 06:48:00,28.5,26.7,30.30,North,11,0.0,2.0,93,0.00,,CLR,0.00,VWS V14.01,2013-01-07 11:48:00,
2013-01-07 06:53:00,28.7,26.9,30.30,North,11,0.0,2.0,93,0.00,,CLR,0.00,VWS V14.01,2013-01-07 11:53:00,
2013-01-07 06:58:00,28.7,26.9,30.30,North,11,0.0,2.0,93,0.00,,CLR,0.00,VWS V14.01,2013-01-07 11:58:00,
2013-01-07 07:03:00,29.2,27.7,30.30,North,11,0.0,2.0,94,0.00,,FEW250,0.00,VWS V14.01,2013-01-07 12:03:00,
2013-01-07 07:08:00,29.8,28.0,30.31,ENE,61,1.0,2.0,93,0.00,,FEW250,0.00,VWS V14.01,2013-01-07 12:08:00,
2013-01-07 07:13:00,30.9,28.6,30.31,ENE,64,0.0,2.0,91,0.00,,FEW250,0.00,VWS V14.01,2013-01-07 12:13:00,
2013-01-07 07:18:00,31.7,28.8,30.31,ENE,64,0.0,2.0,89,0.00,,FEW250,0.00,VWS V14.01,2013-01-07 12:18:00,
2013-01-07 07:23:00,32.1,28.7,30.31,ENE,64,0.0,2.0,87,0.00,,FEW250,0.00,VWS V14.01,2013-01-07 12:23:00,
2013-01-07 07:28:00,32.3,28.9,30.31,ENE,64,0.0,2.0,87,0.00,,FEW250,0.00,VWS V14.01,2013-01-07 12:28:00,
2013-01-07 07:33:00,32.4,28.7,30.32,ENE,64,0.0,2.0,86,0.00,,FEW250,0.00,VWS V14.01,2013-01-07 12:33:00,
2013-01-07 07:38:00,32.2,28.5,30.32,ENE,64,0.0,2.0,86,0.00,,FEW250,0.00,VWS V14.01,2013-01-07 12:38:00,
2013-01-07 07:43:00,32.1,28.4,30.32,ENE,64,0.0,2.0,86,0.00,,FEW250,0.00,VWS V14.01,2013-01-07 12:43:00,
2013-01-07 07:48:00,32.1,28.4,30.33,ENE,74,0.0,2.0,86,0.00,,FEW250,0.00,VWS V14.01,2013-01-07 12:48:00,
2013-01-07 07:53:00,31.9,28.5,30.33,ENE,74,0.0,2.0,87,0.00,,FEW250,0.00,VWS V14.01,2013-01-07 12:53:00,
2013-01-07 07:58:00,31.9,28.5,30.33,ENE,74,0.0,2.0,87,0.00,,FEW250,0.00,VWS V14.01,2013-01-07 12:58:00,
2013-01-07 08:03:00,31.9,28.5,30.33,ENE,75,0.0,2.0,87,0.00,,FEW250,0.00,VWS V14.01,2013-01-07 13:03:00,
2013-01-07 08:08:00,31.7,28.3,30.33,ENE,75,0.0,2.0,87,0.00,,FEW250,0.00,VWS V14.01,2013-01-07 13:08:00,
2013-01-07 08:13:00,31.5,28.1,30.34,ENE,75,0.0,2.0,87,0.00,,FEW250,0.00,VWS V14.01,2013-01-07 13:13:00,
2013-01-07 08:18:00,32.0,28.6,30.34,ENE,74,0.0,2.0,87,0.00,,FEW250,0.00,VWS V14.01,2013-01-07 13:18:00,
2013-01-07 08:23:00,32.7,28.7,30.34,ENE,65,0.0,2.0,85,0.00,,FEW250,0.00,VWS V14.01,2013-01-07 13:23:00,
2013-01-07 08:28:00,33.5,29.2,30.34,ENE,59,0.0,2.0,84,0.00,,FEW250,0.00,VWS V14.01,2013-01-07 13:28:00,
2013-01-07 08:33:00,34.3,29.4,30.34,North,10,0.0,2.0,82,0.00,,FEW250,0.00,VWS V14.01,2013-01-07 13:33:00,
2013-01-07 08:38:00,34.8,29.6,30.35,NNE,21,1.0,2.0,81,0.00,,FEW250,0.00,VWS V14.01,2013-01-07 13:38:00,
2013-01-07 08:43:00,35.2,29.7,30.34,NNE,20,1.0,2.0,80,0.00,,FEW250,0.00,VWS V14.01,2013-01-07 13:43:00,
2013-01-07 08:48:00,35.8,29.6,30.35,NE,35,1.0,2.0,78,0.00,,FEW250,0.00,VWS V14.01,2013-01-07 13:48:00,
2013-01-07 08:53:00,36.5,30.0,30.35,ENE,60,0.0,2.0,77,0.00,,FEW250,0.00,VWS V14.01,2013-01-07 13:53:00,
2013-01-07 08:58:00,37.1,29.9,30.36,ENE,76,2.0,2.0,75,0.00,,FEW250,0.00,VWS V14.01,2013-01-07 13:58:00,
2013-01-07 09:03:00,37.6,30.1,30.36,NE,41,2.0,2.0,74,0.00,,FEW250,0.00,VWS V14.01,2013-01-07 14:03:00,
2013-01-07 09:08:00,38.1,29.9,30.37,NNE,32,2.0,2.0,72,0.00,,FEW250,0.00,VWS V14.01,2013-01-07 14:08:00,
2013-01-07 09:13:00,38.4,30.2,30.37,ENE,74,2.0,2.0,72,0.00,,FEW250,0.00,VWS V14.01,2013-01-07 14:13:00,
2013-01-07 09:18:00,38.9,30.0,30.37,NNE,27,2.0,2.0,70,0.00,,FEW250,0.00,VWS V14.01,2013-01-07 14:18:00,
2013-01-07 09:23:00,39.3,30.4,30.37,NE,38,2.0,2.0,70,0.00,,FEW250,0.00,VWS V14.01,2013-01-07 14:23:00,
2013-01-07 09:28:00,39.7,30.0,30.38,NE,50,3.0,3.0,68,0.00,,FEW250,0.00,VWS V14.01,2013-01-07 14:28:00,
2013-01-07 09:34:00,40.0,30.3,30.38,NE,48,2.0,2.0,68,0.00,,FEW250,0.00,VWS V14.01,2013-01-07 14:34:00,
2013-01-07 09:39:00,40.3,30.2,30.39,NE,50,2.0,2.0,67,0.00,,FEW250,0.00,VWS V14.01,2013-01-07 14:39:00,
2013-01-07 09:44:00,40.5,30.0,30.39,North,9,5.0,5.0,66,0.00,,FEW250,0.00,VWS V14.01,2013-01-07 14:44:00,
2013-01-07 09:49:00,40.8,30.3,30.40,NNE,33,1.0,2.0,66,0.00,,FEW250,0.00,VWS V14.01,2013-01-07 14:49:00,
2013-01-07 09:54:00,41.1,29.5,30.40,NNE,32,2.0,2.0,63,0.00,,FEW250,0.00,VWS V14.01,2013-01-07 14:54:00,
2013-01-07 09:59:00,41.4,29.8,30.40,NE,42,1.0,2.0,63,0.00,,FEW250,0.00,VWS V14.01,2013-01-07 14:59:00,
2013-01-07 10:05:00,41.8,30.5,30.40,ENE,61,0.0,2.0,64,0.00,,FEW250,0.00,VWS V14.01,2013-01-07 15:05:00,
2013-01-07 10:10:00,42.2,30.5,30.40,NE,36,3.0,3.0,63,0.00,,FEW250,0.00,VWS V14.01,2013-01-07 15:10:00,
2013-01-07 10:16:00,42.5,30.4,30.41,ENE,61,1.0,2.0,62,0.00,,FEW250,0.00,VWS V14.01,2013-01-07 15:16:00,
2013-01-07 10:21:00,42.7,29.8,30.41,NE,53,3.0,3.0,60,0.00,,FEW250,0.00,VWS V14.01,2013-01-07 15:21:00,
2013-01-07 10:26:00,43.1,29.8,30.41,NNE,20,3.0,3.0,59,0.00,,FEW250,0.00,VWS V14.01,2013-01-07 15:26:00,
2013-01-07 10:31:00,43.3,30.0,30.41,NE,47,3.0,3.0,59,0.00,,FEW250,0.00,VWS V14.01,2013-01-07 15:31:00,
2013-01-07 10:37:00,43.6,30.2,30.41,NE,38,5.0,5.0,59,0.00,,FEW250,0.00,VWS V14.01,2013-01-07 15:37:00,
2013-01-07 10:42:00,43.7,29.9,30.41,NE,49,3.0,3.0,58,0.00,,FEW250,0.00,VWS V14.01,2013-01-07 15:42:00,
2013-01-07 10:48:00,43.8,30.0,30.41,North,9,2.0,2.0,58,0.00,,FEW250,0.00,VWS V14.01,2013-01-07 15:48:00,
2013-01-07 10:53:00,44.3,30.5,30.41,NNE,15,2.0,2.0,58,0.00,,FEW250,0.00,VWS V14.01,2013-01-07 15:53:00,
2013-01-07 10:58:00,44.6,30.8,30.41,NNE,24,1.0,2.0,58,0.00,,FEW250,0.00,VWS V14.01,2013-01-07 15:58:00,
2013-01-07 11:03:00,44.8,29.6,30.41,NNE,17,2.0,2.0,55,0.00,,FEW250,0.00,VWS V14.01,2013-01-07 16:03:00,
2013-01-07 11:08:00,44.9,30.2,30.41,NE,40,3.0,3.0,56,0.00,,FEW250,0.00,VWS V14.01,2013-01-07 16:08:00,
2013-01-07 11:13:00,45.2,30.0,30.41,ENE,66,1.0,2.0,55,0.00,,FEW250,0.00,VWS V14.01,2013-01-07 16:13:00,
2013-01-07 11:18:00,45.5,30.7,30.41,ENE,62,1.0,2.0,56,0.00,,FEW250,0.00,VWS V14.01,2013-01-07 16:18:00,
2013-01-07 11:23:00,45.7,30.5,30.41,ENE,68,1.0,2.0,55,0.00,,FEW250,0.00,VWS V14.01,2013-01-07 16:23:00,
2013-01-07 11:28:00,46.0,30.8,30.40,North,9,2.0,2.0,55,0.00,,FEW250,0.00,VWS V14.01,2013-01-07 16:28:00,
2013-01-07 11:33:00,46.2,30.5,30.40,SE,128,2.0,2.0,54,0.00,,FEW250,0.00,VWS V14.01,2013-01-07 16:33:00,
2013-01-07 11:39:00,46.4,31.1,30.40,NE,52,2.0,2.0,55,0.00,,FEW250,0.00,VWS V14.01,2013-01-07 16:39:00,
2013-01-07 11:44:00,46.6,30.4,30.40,NE,52,1.0,2.0,53,0.00,,FEW250,0.00,VWS V14.01,2013-01-07 16:44:00,
2013-01-07 11:49:00,46.7,30.5,30.39,NNE,31,3.0,3.0,53,0.00,,FEW250,0.00,VWS V14.01,2013-01-07 16:49:00,
2013-01-07 11:54:00,46.6,29.9,30.39,NNE,30,1.0,2.0,52,0.00,,FEW250,0.00,VWS V14.01,2013-01-07 16:54:00,
2013-01-07 11:59:00,46.7,30.5,30.39,NNE,16,2.0,2.0,53,0.00,,FEW250,0.00,VWS V14.01,2013-01-07 16:59:00,
2013-01-07 12:04:00,46.8,31.5,30.39,ENE,75,1.0,2.0,55,0.00,,FEW250,0.00,VWS V14.01,2013-01-07 17:04:00,
2013-01-07 12:09:00,46.9,30.7,30.39,North,10,2.0,2.0,53,0.00,,FEW250,0.00,VWS V14.01,2013-01-07 17:09:00,
2013-01-07 12:14:00,46.9,30.2,30.39,SSW,194,0.0,2.0,52,0.00,,FEW250,0.00,VWS V14.01,2013-01-07 17:14:00,
2013-01-07 12:19:00,47.1,30.9,30.38,South,182,1.0,2.0,53,0.00,,FEW250,0.00,VWS V14.01,2013-01-07 17:19:00,
2013-01-07 12:24:00,47.1,29.9,30.38,SSE,148,1.0,2.0,51,0.00,,FEW250,0.00,VWS V14.01,2013-01-07 17:24:00,
2013-01-07 12:29:00,47.2,30.5,30.38,NE,45,1.0,2.0,52,0.00,,FEW250,0.00,VWS V14.01,2013-01-07 17:29:00,
2013-01-07 12:34:00,47.3,30.6,30.37,SSE,155,1.0,2.0,52,0.00,,FEW250,0.00,VWS V14.01,2013-01-07 17:34:00,
2013-01-07 12:39:00,47.5,31.2,30.37,ENE,64,0.0,2.0,53,0.00,,FEW250,0.00,VWS V14.01,2013-01-07 17:39:00,
2013-01-07 12:44:00,47.7,30.5,30.37,SSE,160,1.0,2.0,51,0.00,,FEW250,0.00,VWS V14.01,2013-01-07 17:44:00,
2013-01-07 12:49:00,47.9,31.1,30.37,ENE,78,2.0,2.0,52,0.00,,FEW250,0.00,VWS V14.01,2013-01-07 17:49:00,
2013-01-07 12:54:00,47.9,30.7,30.36,SE,142,1.0,2.0,51,0.00,,FEW250,0.00,VWS V14.01,2013-01-07 17:54:00,
2013-01-07 12:59:00,48.2,30.9,30.36,NNW,343,2.0,2.0,51,0.00,,FEW250,0.00,VWS V14.01,2013-01-07 17:59:00,
2013-01-07 13:04:00,48.4,30.6,30.36,NE,41,0.0,2.0,50,0.00,,FEW250,0.00,VWS V14.01,2013-01-07 18:04:00,
2013-01-07 13:09:00,48.7,30.9,30.36,SE,128,0.0,2.0,50,0.00,,FEW250,0.00,VWS V14.01,2013-01-07 18:09:00,
2013-01-07 13:14:00,48.8,30.5,30.36,East,80,0.0,2.0,49,0.00,,FEW250,0.00,VWS V14.01,2013-01-07 18:14:00,
2013-01-07 13:19:00,48.6,30.3,30.36,NE,41,1.0,2.0,49,0.00,,FEW250,0.00,VWS V14.01,2013-01-07 18:19:00,
2013-01-07 13:24:00,48.6,30.8,30.36,SSE,163,0.0,2.0,50,0.00,,FEW250,0.00,VWS V14.01,2013-01-07 18:24:00,
2013-01-07 13:29:00,48.6,30.3,30.35,SSE,149,1.0,2.0,49,0.00,,FEW250,0.00,VWS V14.01,2013-01-07 18:29:00,
2013-01-07 13:34:00,48.8,30.5,30.35,ENE,69,2.0,2.0,49,0.00,,FEW250,0.00,VWS V14.01,2013-01-07 18:34:00,
2013-01-07 13:39:00,49.0,31.2,30.35,East,80,1.0,2.0,50,0.00,,FEW250,0.00,VWS V14.01,2013-01-07 18:39:00,
2013-01-07 13:44:00,49.1,30.8,30.35,NE,44,0.0,2.0,49,0.00,,FEW250,0.00,VWS V14.01,2013-01-07 18:44:00,
2013-01-07 13:49:00,49.2,30.9,30.35,SSE,155,2.0,2.0,49,0.00,,FEW250,0.00,VWS V14.01,2013-01-07 18:49:00,
2013-01-07 13:54:00,49.5,31.1,30.35,East,98,1.0,2.0,49,0.00,,FEW250,0.00,VWS V14.01,2013-01-07 18:54:00,
2013-01-07 13:59:00,49.7,30.3,30.35,NE,56,1.0,2.0,47,0.00,,FEW250,0.00,VWS V14.01,2013-01-07 18:59:00,
2013-01-07 14:04:00,49.8,30.9,30.35,East,97,0.0,2.0,48,0.00,,FEW250,0.00,VWS V14.01,2013-01-07 19:04:00,
2013-01-07 14:09:00,49.7,30.3,30.35,ENE,71,0.0,2.0,47,0.00,,FEW250,0.00,VWS V14.01,2013-01-07 19:09:00,
2013-01-07 14:14:00,49.7,30.3,30.35,SE,131,0.0,2.0,47,0.00,,FEW250,0.00,VWS V14.01,2013-01-07 19:14:00,
2013-01-07 14:19:00,49.7,30.8,30.35,ENE,69,0.0,2.0,48,0.00,,FEW250,0.00,VWS V14.01,2013-01-07 19:19:00,
2013-01-07 14:24:00,49.7,30.8,30.35,ESE,119,1.0,2.0,48,0.00,,FEW250,0.00,VWS V14.01,2013-01-07 19:24:00,
2013-01-07 14:29:00,49.9,31.5,30.35,ENE,76,0.0,2.0,49,0.00,,FEW250,0.00,VWS V14.01,2013-01-07 19:29:00,
2013-01-07 14:34:00,50.1,30.7,30.35,South,187,5.0,5.0,47,0.00,,FEW250,0.00,VWS V14.01,2013-01-07 19:34:00,
2013-01-07 14:39:00,50.2,30.8,30.35,South,171,1.0,2.0,47,0.00,,FEW250,0.00,VWS V14.01,2013-01-07 19:39:00,
2013-01-07 14:44:00,50.2,30.2,30.35,SW,226,2.0,2.0,46,0.00,,FEW250,0.00,VWS V14.01,2013-01-07 19:44:00,
2013-01-07 14:49:00,50.4,31.0,30.35,SSE,161,2.0,2.0,47,0.00,,FEW250,0.00,VWS V14.01,2013-01-07 19:49:00,
2013-01-07 14:54:00,50.4,30.4,30.35,SSE,151,3.0,3.0,46,0.00,,FEW250,0.00,VWS V14.01,2013-01-07 19:54:00,
2013-01-07 14:59:00,50.4,31.0,30.35,South,172,0.0,2.0,47,0.00,,FEW250,0.00,VWS V14.01,2013-01-07 19:59:00,
2013-01-07 15:04:00,50.5,30.5,30.35,ENE,58,0.0,2.0,46,0.00,,FEW250,0.00,VWS V14.01,2013-01-07 20:04:00,
2013-01-07 15:09:00,50.4,29.9,30.35,NE,54,0.0,2.0,45,0.00,,FEW250,0.00,VWS V14.01,2013-01-07 20:09:00,
2013-01-07 15:14:00,50.2,31.3,30.35,SE,137,3.0,3.0,48,0.00,,FEW250,0.00,VWS V14.01,2013-01-07 20:14:00,
2013-01-07 15:19:00,50.2,30.8,30.35,SSE,150,1.0,2.0,47,0.00,,FEW250,0.00,VWS V14.01,2013-01-07 20:19:00,
2013-01-07 15:22:00,50.2,30.8,30.35,ENE,78,0.0,2.0,47,0.00,,FEW250,0.00,VWS V14.01,2013-01-07 20:22:00,
2013-01-07 15:27:00,50.2,31.3,30.35,NE,54,1.0,2.0,48,0.00,,FEW250,0.00,VWS V14.01,2013-01-07 20:27:00,
2013-01-07 15:33:00,50.2,30.8,30.35,SSW,210,2.0,2.0,47,0.00,,FEW250,0.00,VWS V14.01,2013-01-07 20:33:00,
2013-01-07 15:38:00,50.3,31.4,30.35,SSE,163,0.0,2.0,48,0.00,,FEW250,0.00,VWS V14.01,2013-01-07 20:38:00,
2013-01-07 15:43:00,50.4,32.0,30.35,ENE,75,1.0,2.0,49,0.00,,FEW250,0.00,VWS V14.01,2013-01-07 20:43:00,
2013-01-07 15:48:00,50.4,31.5,30.35,ENE,63,0.0,2.0,48,0.00,,FEW250,0.00,VWS V14.01,2013-01-07 20:48:00,
2013-01-07 15:54:00,50.3,31.4,30.35,SE,131,0.0,2.0,48,0.00,,FEW250,0.00,VWS V14.01,2013-01-07 20:54:00,
2013-01-07 15:59:00,50.3,31.9,30.35,ENE,61,1.0,2.0,49,0.00,,FEW250,0.00,VWS V14.01,2013-01-07 20:59:00,
2013-01-07 16:04:00,50.1,31.7,30.36,SE,140,0.0,2.0,49,0.00,,FEW250,0.00,VWS V14.01,2013-01-07 21:04:00,
2013-01-07 16:09:00,50.0,31.6,30.36,ENE,77,0.0,2.0,49,0.00,,FEW250,0.00,VWS V14.01,2013-01-07 21:09:00,
2013-01-07 16:14:00,50.0,31.6,30.36,ENE,67,0.0,2.0,49,0.00,,FEW250,0.00,VWS V14.01,2013-01-07 21:14:00,
2013-01-07 16:19:00,50.1,31.7,30.36,South,184,1.0,2.0,49,0.00,,FEW250,0.00,VWS V14.01,2013-01-07 21:19:00,
2013-01-07 16:24:00,50.0,31.6,30.36,ESE,106,0.0,2.0,49,0.00,,FEW250,0.00,VWS V14.01,2013-01-07 21:24:00,
2013-01-07 16:29:00,50.0,31.6,30.36,South,176,4.0,4.0,49,0.00,,FEW250,0.00,VWS V14.01,2013-01-07 21:29:00,
2013-01-07 16:34:00,49.9,31.0,30.36,South,183,0.0,2.0,48,0.00,,FEW250,0.00,VWS V14.01,2013-01-07 21:34:00,
2013-01-07 16:39:00,49.8,31.9,30.36,South,183,0.0,2.0,50,0.00,,FEW250,0.00,VWS V14.01,2013-01-07 21:39:00,
2013-01-07 16:44:00,49.6,31.2,30.37,South,183,2.0,2.0,49,0.00,,FEW250,0.00,VWS V14.01,2013-01-07 21:44:00,
2013-01-07 16:49:00,49.6,31.7,30.36,SSE,159,0.0,2.0,50,0.00,,FEW250,0.00,VWS V14.01,2013-01-07 21:49:00,
2013-01-07 16:54:00,49.5,31.6,30.37,SSE,150,0.0,2.0,50,0.00,,FEW250,0.00,VWS V14.01,2013-01-07 21:54:00,
2013-01-07 16:59:00,49.4,31.6,30.37,SE,128,1.0,2.0,50,0.00,,FEW250,0.00,VWS V14.01,2013-01-07 21:59:00,
2013-01-07 17:04:00,49.3,31.5,30.37,ESE,109,0.0,2.0,50,0.00,,FEW250,0.00,VWS V14.01,2013-01-07 22:04:00,
2013-01-07 17:09:00,49.2,31.9,30.37,ESE,109,0.0,2.0,51,0.00,,FEW250,0.00,VWS V14.01,2013-01-07 22:09:00,
2013-01-07 17:14:00,49.0,31.7,30.37,ESE,109,0.0,2.0,51,0.00,,FEW250,0.00,VWS V14.01,2013-01-07 22:14:00,
2013-01-07 17:19:00,48.7,31.9,30.38,ESE,109,0.0,2.0,52,0.00,,FEW250,0.00,VWS V14.01,2013-01-07 22:19:00,
2013-01-07 17:24:00,48.4,32.1,30.37,ESE,109,0.0,2.0,53,0.00,,FEW250,0.00,VWS V14.01,2013-01-07 22:24:00,
2013-01-07 17:29:00,48.0,31.7,30.37,ESE,109,0.0,2.0,53,0.00,,FEW250,0.00,VWS V14.01,2013-01-07 22:29:00,
2013-01-07 17:34:00,47.6,31.8,30.38,ESE,109,0.0,2.0,54,0.00,,FEW250,0.00,VWS V14.01,2013-01-07 22:34:00,
2013-01-07 17:39:00,47.2,32.3,30.38,ESE,109,0.0,2.0,56,0.00,,FEW250,0.00,VWS V14.01,2013-01-07 22:39:00,
2013-01-07 17:44:00,46.8,32.4,30.38,ESE,109,0.0,2.0,57,0.00,,FEW250,0.00,VWS V14.01,2013-01-07 22:44:00,
2013-01-07 17:49:00,46.3,31.9,30.38,ESE,109,0.0,2.0,57,0.00,,FEW250,0.00,VWS V14.01,2013-01-07 22:49:00,
2013-01-07 17:54:00,45.7,32.2,30.38,ESE,109,0.0,2.0,59,0.00,,FEW250,0.00,VWS V14.01,2013-01-07 22:54:00,
2013-01-07 17:59:00,45.2,32.2,30.38,ESE,109,0.0,2.0,60,0.00,,FEW250,0.00,VWS V14.01,2013-01-07 22:59:00,
2013-01-07 18:04:00,44.7,32.1,30.38,ESE,109,0.0,2.0,61,0.00,,FEW250,0.00,VWS V14.01,2013-01-07 23:04:00,
2013-01-07 18:09:00,44.3,32.1,30.39,ESE,109,0.0,2.0,62,0.00,,FEW250,0.00,VWS V14.01,2013-01-07 23:09:00,
2013-01-07 18:14:00,43.8,32.0,30.39,ESE,109,0.0,2.0,63,0.00,,FEW250,0.00,VWS V14.01,2013-01-07 23:14:00,
2013-01-07 18:19:00,43.4,32.0,30.39,ESE,109,0.0,2.0,64,0.00,,FEW250,0.00,VWS V14.01,2013-01-07 23:19:00,
2013-01-07 18:25:00,43.0,32.4,30.39,ESE,109,0.0,2.0,66,0.00,,FEW250,0.00,VWS V14.01,2013-01-07 23:25:00,
2013-01-07 18:30:00,42.4,32.2,30.39,ESE,109,0.0,2.0,67,0.00,,FEW250,0.00,VWS V14.01,2013-01-07 23:30:00,
2013-01-07 18:35:00,42.0,32.2,30.39,ESE,109,0.0,2.0,68,0.00,,FEW250,0.00,VWS V14.01,2013-01-07 23:35:00,
2013-01-07 18:40:00,41.7,31.9,30.39,ESE,109,0.0,2.0,68,0.00,,FEW250,0.00,VWS V14.01,2013-01-07 23:40:00,
2013-01-07 18:45:00,41.3,31.9,30.39,ESE,109,0.0,2.0,69,0.00,,FEW250,0.00,VWS V14.01,2013-01-07 23:45:00,
2013-01-07 18:50:00,41.0,31.6,30.39,ESE,109,0.0,2.0,69,0.00,,FEW250,0.00,VWS V14.01,2013-01-07 23:50:00,
2013-01-07 18:55:00,40.6,31.6,30.39,ESE,109,0.0,2.0,70,0.00,,FEW250,0.00,VWS V14.01,2013-01-07 23:55:00,
2013-01-07 19:00:00,40.4,31.8,30.39,ESE,109,0.0,2.0,71,0.00,,FEW250,0.00,VWS V14.01,2013-01-08 00:00:00,
2013-01-07 19:05:00,40.1,31.8,30.39,ESE,109,0.0,2.0,72,0.00,,CLR,0.00,VWS V14.01,2013-01-08 00:05:00,
2013-01-07 19:10:00,39.7,31.4,30.39,ESE,109,0.0,2.0,72,0.00,,CLR,0.00,VWS V14.01,2013-01-08 00:10:00,
2013-01-07 19:15:00,39.2,31.3,30.39,ESE,109,0.0,2.0,73,0.00,,CLR,0.00,VWS V14.01,2013-01-08 00:15:00,
2013-01-07 19:20:00,38.9,31.3,30.39,ESE,109,0.0,2.0,74,0.00,,CLR,0.00,VWS V14.01,2013-01-08 00:20:00,
2013-01-07 19:25:00,38.6,31.4,30.39,ESE,109,0.0,2.0,75,0.00,,CLR,0.00,VWS V14.01,2013-01-08 00:25:00,
2013-01-07 19:30:00,38.4,31.5,30.38,ESE,109,0.0,2.0,76,0.00,,CLR,0.00,VWS V14.01,2013-01-08 00:30:00,
2013-01-07 19:35:00,38.1,31.5,30.38,ESE,109,0.0,2.0,77,0.00,,CLR,0.00,VWS V14.01,2013-01-08 00:35:00,
2013-01-07 19:40:00,37.8,31.2,30.38,ESE,109,0.0,2.0,77,0.00,,CLR,0.00,VWS V14.01,2013-01-08 00:40:00,
2013-01-07 19:45:00,37.6,31.4,30.38,ESE,109,0.0,2.0,78,0.00,,CLR,0.00,VWS V14.01,2013-01-08 00:45:00,
2013-01-07 19:50:00,37.5,31.3,30.38,ESE,109,0.0,2.0,78,0.00,,CLR,0.00,VWS V14.01,2013-01-08 00:50:00,
2013-01-07 19:55:00,37.3,31.1,30.38,ESE,109,0.0,2.0,78,0.00,,CLR,0.00,VWS V14.01,2013-01-08 00:55:00,
2013-01-07 20:00:00,37.1,30.9,30.38,ESE,109,0.0,2.0,78,0.00,,CLR,0.00,VWS V14.01,2013-01-08 01:00:00,
2013-01-07 20:05:00,36.8,30.9,30.38,ESE,109,0.0,2.0,79,0.00,,CLR,0.00,VWS V14.01,2013-01-08 01:05:00,
2013-01-07 20:10:00,36.5,30.9,30.38,ESE,109,0.0,2.0,80,0.00,,CLR,0.00,VWS V14.01,2013-01-08 01:10:00,
2013-01-07 20:15:00,36.3,30.7,30.39,ESE,109,0.0,2.0,80,0.00,,CLR,0.00,VWS V14.01,2013-01-08 01:15:00,
2013-01-07 20:20:00,36.1,30.5,30.39,ESE,109,0.0,2.0,80,0.00,,CLR,0.00,VWS V14.01,2013-01-08 01:20:00,
2013-01-07 20:25:00,35.9,30.6,30.39,ESE,109,0.0,2.0,81,0.00,,CLR,0.00,VWS V14.01,2013-01-08 01:25:00,
2013-01-07 20:30:00,35.8,30.9,30.39,ESE,109,0.0,2.0,82,0.00,,CLR,0.00,VWS V14.01,2013-01-08 01:30:00,
2013-01-07 20:35:00,35.7,30.8,30.39,ESE,109,0.0,2.0,82,0.00,,CLR,0.00,VWS V14.01,2013-01-08 01:35:00,
2013-01-07 20:40:00,35.7,31.0,30.39,ESE,109,0.0,2.0,83,0.00,,CLR,0.00,VWS V14.01,2013-01-08 01:40:00,
2013-01-07 20:45:00,35.6,31.0,30.40,ESE,109,0.0,2.0,83,0.00,,CLR,0.00,VWS V14.01,2013-01-08 01:45:00,
2013-01-07 20:50:00,35.5,30.9,30.40,ESE,109,0.0,2.0,83,0.00,,CLR,0.00,VWS V14.01,2013-01-08 01:50:00,
2013-01-07 20:55:00,35.3,30.7,30.40,ESE,109,0.0,2.0,83,0.00,,CLR,0.00,VWS V14.01,2013-01-08 01:55:00,
2013-01-07 21:00:00,35.1,30.5,30.40,ESE,109,0.0,2.0,83,0.00,,CLR,0.00,VWS V14.01,2013-01-08 02:00:00,
2013-01-07 21:05:00,35.0,30.4,30.40,ESE,109,0.0,2.0,83,0.00,,FEW250,0.00,VWS V14.01,2013-01-08 02:05:00,
2013-01-07 21:10:00,35.0,30.7,30.40,ESE,109,0.0,2.0,84,0.00,,FEW250,0.00,VWS V14.01,2013-01-08 02:10:00,
2013-01-07 21:15:00,34.7,30.4,30.39,ESE,109,0.0,2.0,84,0.00,,FEW250,0.00,VWS V14.01,2013-01-08 02:15:00,
2013-01-07 21:20:00,34.5,30.2,30.39,ESE,109,0.0,2.0,84,0.00,,FEW250,0.00,VWS V14.01,2013-01-08 02:20:00,
2013-01-07 21:25:00,34.4,30.4,30.39,ESE,109,0.0,2.0,85,0.00,,FEW250,0.00,VWS V14.01,2013-01-08 02:25:00,
2013-01-07 21:30:00,34.4,30.4,30.38,ESE,109,0.0,2.0,85,0.00,,FEW250,0.00,VWS V14.01,2013-01-08 02:30:00,
2013-01-07 21:35:00,34.4,30.4,30.38,ESE,109,0.0,2.0,85,0.00,,FEW250,0.00,VWS V14.01,2013-01-08 02:35:00,
2013-01-07 21:40:00,34.4,30.4,30.39,ESE,109,0.0,2.0,85,0.00,,FEW250,0.00,VWS V14.01,2013-01-08 02:40:00,
2013-01-07 21:45:00,34.3,30.3,30.39,ESE,109,0.0,2.0,85,0.00,,FEW250,0.00,VWS V14.01,2013-01-08 02:45:00,
2013-01-07 21:50:00,34.1,30.1,30.39,ESE,109,0.0,2.0,85,0.00,,FEW250,0.00,VWS V14.01,2013-01-08 02:50:00,
2013-01-07 21:55:00,33.9,30.2,30.40,ESE,109,0.0,2.0,86,0.00,,FEW250,0.00,VWS V14.01,2013-01-08 02:55:00,
2013-01-07 22:00:00,33.8,29.8,30.40,ESE,109,0.0,2.0,85,0.00,,FEW250,0.00,VWS V14.01,2013-01-08 03:00:00,
2013-01-07 22:05:00,33.7,30.0,30.39,ESE,109,0.0,2.0,86,0.00,,FEW250,0.00,VWS V14.01,2013-01-08 03:05:00,
2013-01-07 22:10:00,33.5,29.8,30.39,ESE,109,0.0,2.0,86,0.00,,FEW250,0.00,VWS V14.01,2013-01-08 03:10:00,
2013-01-07 22:15:00,33.4,30.0,30.39,ESE,109,0.0,2.0,87,0.00,,FEW250,0.00,VWS V14.01,2013-01-08 03:15:00,
2013-01-07 22:20:00,33.3,29.9,30.40,ESE,109,0.0,2.0,87,0.00,,FEW250,0.00,VWS V14.01,2013-01-08 03:20:00,
2013-01-07 22:25:00,33.2,29.8,30.40,ESE,109,0.0,2.0,87,0.00,,FEW250,0.00,VWS V14.01,2013-01-08 03:25:00,
2013-01-07 22:30:00,33.0,29.6,30.40,ESE,109,0.0,2.0,87,0.00,,FEW250,0.00,VWS V14.01,2013-01-08 03:30:00,
2013-01-07 22:35:00,32.9,29.7,30.40,ESE,109,0.0,2.0,88,0.00,,FEW250,0.00,VWS V14.01,2013-01-08 03:35:00,
2013-01-07 22:40:00,32.8,29.6,30.40,ESE,109,0.0,2.0,88,0.00,,FEW250,0.00,VWS V14.01,2013-01-08 03:40:00,
2013-01-07 22:45:00,32.7,29.5,30.40,ESE,109,0.0,2.0,88,0.00,,FEW250,0.00,VWS V14.01,2013-01-08 03:45:00,
2013-01-07 22:50:00,32.5,29.4,30.40,ESE,109,0.0,2.0,88,0.00,,FEW250,0.00,VWS V14.01,2013-01-08 03:50:00,
2013-01-07 22:55:00,32.3,29.1,30.41,ESE,109,0.0,2.0,88,0.00,,FEW250,0.00,VWS V14.01,2013-01-08 03:55:00,
2013-01-07 23:00:00,32.2,29.0,30.41,ESE,109,0.0,2.0,88,0.00,,FEW250,0.00,VWS V14.01,2013-01-08 04:00:00,
2013-01-07 23:05:00,32.0,28.9,30.41,ESE,109,0.0,2.0,88,0.00,,FEW250,0.00,VWS V14.01,2013-01-08 04:05:00,
2013-01-07 23:10:00,31.9,29.0,30.40,ESE,109,0.0,2.0,89,0.00,,FEW250,0.00,VWS V14.01,2013-01-08 04:10:00,
2013-01-07 23:15:00,31.8,28.9,30.40,ESE,109,0.0,2.0,89,0.00,,FEW250,0.00,VWS V14.01,2013-01-08 04:15:00,
2013-01-07 23:20:00,31.7,28.8,30.40,ESE,109,0.0,2.0,89,0.00,,FEW250,0.00,VWS V14.01,2013-01-08 04:20:00,
2013-01-07 23:25:00,31.6,28.7,30.40,ESE,109,0.0,2.0,89,0.00,,FEW250,0.00,VWS V14.01,2013-01-08 04:25:00,
2013-01-07 23:30:00,31.5,28.6,30.40,ESE,109,0.0,2.0,89,0.00,,FEW250,0.00,VWS V14.01,2013-01-08 04:30:00,
2013-01-07 23:35:00,31.4,28.5,30.40,ESE,109,0.0,2.0,89,0.00,,FEW250,0.00,VWS V14.01,2013-01-08 04:35:00,
2013-01-07 23:40:00,31.3,28.4,30.40,ESE,109,0.0,2.0,89,0.00,,FEW250,0.00,VWS V14.01,2013-01-08 04:40:00,
2013-01-07 23:45:00,31.1,28.5,30.41,ESE,109,0.0,2.0,90,0.00,,FEW250,0.00,VWS V14.01,2013-01-08 04:45:00,
2013-01-07 23:50:00,31.0,28.4,30.40,ESE,109,0.0,2.0,90,0.00,,FEW250,0.00,VWS V14.01,2013-01-08 04:50:00,
2013-01-07 23:55:00,30.9,28.3,30.40,ESE,109,0.0,2.0,90,0.00,,FEW250,0.00,VWS V14.01,2013-01-08 04:55:00,